| time (UTC) | temp C | wind direction | speed KPH | gust KPH | rain 1hr cm | rain 24hr cm | rain mn cm | humidity % | barometer mb |
| 20260503031042 | 12 | 359 | 6.4 | 9.7 | 0.00 | 0.00 | 0.00 | 77 | 1014.5 |
| 20260503030543 | 12 | 359 | 6.4 | 9.7 | 0.00 | 0.00 | 0.00 | 77 | 1014.5 |
| 20260503030044 | 12 | 359 | 6.4 | 8.0 | 0.00 | 0.00 | 0.00 | 77 | 1014.5 |
| 20260503025542 | 12 | 359 | 3.2 | 6.4 | 0.00 | 0.00 | 0.00 | 76 | 1014.4 |
| 20260503025042 | 13 | 359 | 0.0 | 4.8 | 0.00 | 0.00 | 0.00 | 74 | 1014.3 |
| 20260503024546 | 13 | 359 | 1.6 | 4.8 | 0.00 | 0.00 | 0.00 | 71 | 1014.4 |
| 20260503024042 | 13 | 359 | 1.6 | 4.8 | 0.00 | 0.00 | 0.00 | 69 | 1014.4 |
| 20260503023542 | 14 | 359 | 1.6 | 3.2 | 0.00 | 0.00 | 0.00 | 68 | 1014.3 |
| 20260503023041 | 14 | 359 | 0.0 | 3.2 | 0.00 | 0.00 | 0.00 | 68 | 1014.3 |
| 20260503022541 | 14 | 359 | 0.0 | 3.2 | 0.00 | 0.00 | 0.00 | 68 | 1014.3 |
| 20260503022041 | 15 | 359 | 0.0 | 4.8 | 0.00 | 0.00 | 0.00 | 67 | 1014.3 |
| 20260503021546 | 15 | 359 | 1.6 | 4.8 | 0.00 | 0.00 | 0.00 | 66 | 1014.2 |
| 20260503021043 | 15 | 359 | 1.6 | 3.2 | 0.00 | 0.00 | 0.00 | 63 | 1014.1 |
| 20260503020541 | 16 | 359 | 0.0 | 0.0 | 0.00 | 0.00 | 0.00 | 63 | 1014.2 |
| 20260503020046 | 16 | 359 | 0.0 | 0.0 | 0.00 | 0.00 | 0.00 | 61 | 1014.1 |
| 20260503015539 | 16 | 359 | 0.0 | 0.0 | 0.00 | 0.00 | 0.00 | 60 | 1014.1 |
| 20260503015039 | 16 | 359 | 0.0 | 0.0 | 0.00 | 0.00 | 0.00 | 54 | 1014.2 |
| 20260503014539 | 17 | 359 | 0.0 | 0.0 | 0.00 | 0.00 | 0.00 | 53 | 1014.1 |
| 20260503014039 | 17 | 164 | 0.0 | 0.0 | 0.00 | 0.00 | 0.00 | 52 | 1014.0 |
| 20260503013539 | 17 | 164 | 0.0 | 0.0 | 0.00 | 0.00 | 0.00 | 51 | 1014.1 |
| 20260503013043 | 18 | 164 | 0.0 | 0.0 | 0.00 | 0.00 | 0.00 | 50 | 1014.1 |
| 20260503012538 | 18 | 162 | 0.0 | 1.6 | 0.00 | 0.00 | 0.00 | 46 | 1014.1 |
| 20260503012037 | 18 | 359 | 0.0 | 1.6 | 0.00 | 0.00 | 0.00 | 44 | 1014.1 |
| 20260503011543 | 18 | 359 | 0.0 | 4.8 | 0.00 | 0.00 | 0.00 | 42 | 1014.1 |
| 20260503011037 | 18 | 359 | 0.0 | 4.8 | 0.00 | 0.00 | 0.00 | 41 | 1014.1 |
| 20260503010539 | 18 | 359 | 0.0 | 3.2 | 0.00 | 0.00 | 0.00 | 42 | 1014.1 |
| 20260503010039 | 18 | 359 | 0.0 | 4.8 | 0.00 | 0.00 | 0.00 | 40 | 1014.3 |
| 20260503005537 | 18 | 359 | 1.6 | 4.8 | 0.00 | 0.00 | 0.00 | 39 | 1014.2 |
| 20260503005037 | 18 | 102 | 1.6 | 4.8 | 0.00 | 0.00 | 0.00 | 40 | 1014.2 |
| 20260503004537 | 18 | 359 | 0.0 | 4.8 | 0.00 | 0.00 | 0.00 | 43 | 1014.2 |
| 20260503004036 | 18 | 359 | 0.0 | 4.8 | 0.00 | 0.00 | 0.00 | 44 | 1014.2 |
| 20260503003539 | 18 | 359 | 0.0 | 4.8 | 0.00 | 0.00 | 0.00 | 44 | 1014.2 |
| 20260503003036 | 17 | 359 | 1.6 | 6.4 | 0.00 | 0.00 | 0.00 | 47 | 1014.3 |
| 20260503002536 | 17 | 359 | 1.6 | 6.4 | 0.00 | 0.00 | 0.00 | 44 | 1014.3 |
| 20260503002036 | 17 | 359 | 3.2 | 6.4 | 0.00 | 0.00 | 0.00 | 48 | 1014.4 |
| 20260503001536 | 17 | 359 | 1.6 | 6.4 | 0.00 | 0.00 | 0.00 | 50 | 1014.4 |
| 20260503001035 | 17 | 359 | 3.2 | 6.4 | 0.00 | 0.00 | 0.00 | 48 | 1014.3 |
| 20260503000535 | 17 | 359 | 0.0 | 6.4 | 0.00 | 0.00 | 0.00 | 50 | 1014.1 |
| 20260503000045 | 16 | 359 | 1.6 | 6.4 | 0.00 | 0.00 | 0.00 | 48 | 1014.2 |
| 20260502235534 | 16 | 359 | 1.6 | 4.8 | 0.00 | 0.00 | 0.00 | 52 | 1014.3 |
| 20260502235033 | 16 | 359 | 1.6 | 4.8 | 0.00 | 0.00 | 0.00 | 55 | 1014.5 |
| 20260502234533 | 16 | 359 | 0.0 | 3.2 | 0.00 | 0.00 | 0.00 | 54 | 1014.6 |
| 20260502234033 | 15 | 359 | 0.0 | 3.2 | 0.00 | 0.00 | 0.00 | 58 | 1014.8 |
| 20260502233530 | 15 | 359 | 0.0 | 3.2 | 0.00 | 0.00 | 0.00 | 65 | 1014.9 |
| 20260502233030 | 16 | 359 | 1.6 | 3.2 | 0.00 | 0.00 | 0.00 | 61 | 1014.9 |
| 20260502232534 | 16 | 359 | 0.0 | 3.2 | 0.00 | 0.00 | 0.00 | 56 | 1015.1 |
| 20260502232029 | 17 | 359 | 1.6 | 3.2 | 0.00 | 0.00 | 0.00 | 55 | 1015.0 |
| 20260502231530 | 17 | 359 | 0.0 | 4.8 | 0.00 | 0.00 | 0.00 | 48 | 1015.0 |
| 20260502231029 | 17 | 359 | 1.6 | 4.8 | 0.00 | 0.00 | 0.00 | 46 | 1014.9 |
| 20260502230529 | 17 | 359 | 0.0 | 3.2 | 0.00 | 0.00 | 0.00 | 45 | 1015.0 |
| 20260502230028 | 17 | 359 | 0.0 | 4.8 | 0.00 | 0.00 | 0.00 | 44 | 1015.0 |
| 20260502225527 | 17 | 359 | 0.0 | 3.2 | 0.00 | 0.00 | 0.00 | 44 | 1015.2 |
| 20260502225031 | 17 | 359 | 0.0 | 4.8 | 0.00 | 0.00 | 0.00 | 44 | 1015.3 |
| 20260502224526 | 17 | 359 | 1.6 | 4.8 | 0.00 | 0.00 | 0.00 | 43 | 1015.3 |
| 20260502224027 | 17 | 359 | 0.0 | 6.4 | 0.00 | 0.00 | 0.00 | 42 | 1015.2 |
| 20260502223526 | 18 | 359 | 1.6 | 6.4 | 0.00 | 0.00 | 0.00 | 42 | 1015.4 |
| 20260502223026 | 18 | 359 | 1.6 | 14.5 | 0.00 | 0.00 | 0.00 | 40 | 1015.4 |
| 20260502222525 | 18 | 359 | 0.0 | 14.5 | 0.00 | 0.00 | 0.00 | 40 | 1015.4 |
| 20260502222027 | 18 | 359 | 3.2 | 9.7 | 0.00 | 0.00 | 0.00 | 39 | 1015.5 |
| 20260502221529 | 18 | 359 | 4.8 | 9.7 | 0.00 | 0.00 | 0.00 | 38 | 1015.5 |
| 20260502221024 | 18 | 54 | 0.0 | 11.3 | 0.00 | 0.00 | 0.00 | 40 | 1015.5 |
| 20260502220523 | 18 | 93 | 3.2 | 11.3 | 0.00 | 0.00 | 0.00 | 38 | 1015.7 |
| 20260502220023 | 18 | 359 | 3.2 | 6.4 | 0.00 | 0.00 | 0.00 | 38 | 1015.7 |
| 20260502215522 | 18 | 359 | 1.6 | 6.4 | 0.00 | 0.00 | 0.00 | 40 | 1015.8 |
| 20260502215021 | 18 | 94 | 3.2 | 14.5 | 0.00 | 0.00 | 0.00 | 38 | 1016.0 |
| 20260502214521 | 18 | 359 | 4.8 | 14.5 | 0.00 | 0.00 | 0.00 | 39 | 1015.9 |
| 20260502214024 | 18 | 359 | 1.6 | 12.9 | 0.00 | 0.00 | 0.00 | 40 | 1016.1 |
| 20260502213521 | 18 | 359 | 3.2 | 12.9 | 0.00 | 0.00 | 0.00 | 41 | 1016.0 |
| 20260502213021 | 18 | 182 | 1.6 | 11.3 | 0.00 | 0.00 | 0.00 | 39 | 1016.1 |
| 20260502212520 | 19 | 133 | 3.2 | 9.7 | 0.00 | 0.00 | 0.00 | 38 | 1016.1 |
| 20260502212020 | 19 | 95 | 1.6 | 6.4 | 0.00 | 0.00 | 0.00 | 39 | 1016.1 |
| 20260502211518 | 18 | 359 | 0.0 | 12.9 | 0.00 | 0.00 | 0.00 | 42 | 1016.2 |
| 20260502211018 | 18 | 359 | 4.8 | 14.5 | 0.00 | 0.00 | 0.00 | 40 | 1016.2 |
| 20260502210517 | 18 | 359 | 3.2 | 14.5 | 0.00 | 0.00 | 0.00 | 41 | 1016.3 |
| 20260502210018 | 18 | 359 | 4.8 | 12.9 | 0.00 | 0.00 | 0.00 | 41 | 1016.4 |
| 20260502205517 | 18 | 359 | 6.4 | 12.9 | 0.00 | 0.00 | 0.00 | 39 | 1016.4 |
| 20260502205017 | 18 | 359 | 1.6 | 14.5 | 0.00 | 0.00 | 0.00 | 38 | 1016.4 |
| 20260502204518 | 18 | 359 | 3.2 | 14.5 | 0.00 | 0.00 | 0.00 | 39 | 1016.4 |
| 20260502204017 | 19 | 132 | 3.2 | 12.9 | 0.00 | 0.00 | 0.00 | 37 | 1016.5 |
| 20260502203517 | 19 | 81 | 3.2 | 12.9 | 0.00 | 0.00 | 0.00 | 39 | 1016.5 |
| 20260502203016 | 19 | 144 | 3.2 | 16.1 | 0.00 | 0.00 | 0.00 | 38 | 1016.6 |
| 20260502202515 | 19 | 135 | 3.2 | 16.1 | 0.00 | 0.00 | 0.00 | 36 | 1016.6 |
| 20260502202014 | 19 | 150 | 1.6 | 9.7 | 0.00 | 0.00 | 0.00 | 39 | 1016.6 |
| 20260502201514 | 19 | 359 | 3.2 | 12.9 | 0.00 | 0.00 | 0.00 | 37 | 1016.6 |
| 20260502201016 | 19 | 102 | 3.2 | 11.3 | 0.00 | 0.00 | 0.00 | 38 | 1016.7 |
| 20260502200514 | 19 | 23 | 1.6 | 8.0 | 0.00 | 0.00 | 0.00 | 39 | 1016.9 |
| 20260502200012 | 18 | 359 | 1.6 | 17.7 | 0.00 | 0.00 | 0.00 | 41 | 1016.9 |
| 20260502195511 | 18 | 359 | 4.8 | 17.7 | 0.00 | 0.00 | 0.00 | 40 | 1017.0 |
| 20260502195010 | 18 | 135 | 1.6 | 9.7 | 0.00 | 0.00 | 0.00 | 42 | 1017.0 |
| 20260502194510 | 18 | 359 | 4.8 | 14.5 | 0.00 | 0.00 | 0.00 | 42 | 1017.0 |
| 20260502194009 | 18 | 359 | 4.8 | 14.5 | 0.00 | 0.00 | 0.00 | 44 | 1017.2 |
| 20260502193510 | 18 | 43 | 1.6 | 17.7 | 0.00 | 0.00 | 0.00 | 47 | 1017.2 |
| 20260502193116 | 18 | 359 | 4.8 | 17.7 | 0.00 | 0.00 | 0.00 | 43 | 1017.2 |
| 20260502192507 | 18 | 359 | 6.4 | 16.1 | 0.00 | 0.00 | 0.00 | 44 | 1017.3 |
| 20260502192009 | 18 | 359 | 6.4 | 16.1 | 0.00 | 0.00 | 0.00 | 44 | 1017.3 |
| 20260502191507 | 18 | 359 | 3.2 | 9.7 | 0.00 | 0.00 | 0.00 | 42 | 1017.4 |
| 20260502191010 | 17 | 359 | 1.6 | 17.7 | 0.00 | 0.00 | 0.00 | 43 | 1017.3 |
| 20260502190505 | 17 | 359 | 8.0 | 19.3 | 0.00 | 0.00 | 0.00 | 42 | 1017.3 |
| 20260502190006 | 18 | 359 | 3.2 | 19.3 | 0.00 | 0.00 | 0.00 | 44 | 1017.4 |
| 20260502185505 | 18 | 359 | 4.8 | 14.5 | 0.00 | 0.00 | 0.00 | 42 | 1017.4 |
| 20260502185005 | 18 | 359 | 4.8 | 14.5 | 0.00 | 0.00 | 0.00 | 43 | 1017.4 |
| 20260502184507 | 18 | 359 | 1.6 | 8.0 | 0.00 | 0.00 | 0.00 | 47 | 1017.4 |
| 20260502184002 | 17 | 359 | 3.2 | 9.7 | 0.00 | 0.00 | 0.00 | 45 | 1017.5 |
| 20260502183503 | 17 | 359 | 1.6 | 14.5 | 0.00 | 0.00 | 0.00 | 44 | 1017.5 |
| 20260502183002 | 17 | 359 | 4.8 | 16.1 | 0.00 | 0.00 | 0.00 | 46 | 1017.5 |
| 20260502182601 | 17 | 359 | 3.2 | 17.7 | 0.00 | 0.00 | 0.00 | 44 | 1017.5 |
| 20260502182501 | 17 | 359 | 3.2 | 17.7 | 0.00 | 0.00 | 0.00 | 44 | 1017.6 |
| 20260502182100 | 17 | 359 | 8.0 | 17.7 | 0.00 | 0.00 | 0.00 | 42 | 1017.6 |
| 20260502181600 | 17 | 359 | 1.6 | 14.5 | 0.00 | 0.00 | 0.00 | 43 | 1017.7 |
| 20260502181100 | 18 | 359 | 3.2 | 14.5 | 0.00 | 0.00 | 0.00 | 42 | 1017.7 |
| 20260502180600 | 18 | 359 | 4.8 | 14.5 | 0.00 | 0.00 | 0.00 | 41 | 1017.7 |
| 20260502164050 | 15 | 359 | 1.6 | 9.7 | 0.00 | 0.00 | 0.00 | 50 | 1018.2 |
| 20260502163548 | 15 | 359 | 3.2 | 9.7 | 0.00 | 0.00 | 0.00 | 48 | 1018.2 |
| 20260502163050 | 15 | 359 | 0.0 | 4.8 | 0.00 | 0.00 | 0.00 | 49 | 1018.1 |
| 20260502162546 | 15 | 359 | 1.6 | 4.8 | 0.00 | 0.00 | 0.00 | 51 | 1018.2 |
| 20260502162042 | 15 | 359 | 1.6 | 8.0 | 0.00 | 0.00 | 0.00 | 51 | 1018.1 |
| 20260502161602 | 15 | 359 | 0.0 | 3.2 | 0.00 | 0.00 | 0.00 | 52 | 1018.1 |
| 20260502161041 | 14 | 359 | 1.6 | 8.0 | 0.00 | 0.00 | 0.00 | 53 | 1018.1 |
| 20260502160538 | 14 | 359 | 1.6 | 8.0 | 0.00 | 0.00 | 0.00 | 54 | 1018.2 |
| 20260502152029 | 11 | 359 | 0.0 | 3.2 | 0.00 | 0.00 | 0.00 | 71 | 1018.3 |
| 20260502151528 | 11 | 359 | 0.0 | 0.0 | 0.00 | 0.00 | 0.00 | 72 | 1018.4 |
| 20260502151025 | 11 | 359 | 0.0 | 1.6 | 0.00 | 0.00 | 0.00 | 74 | 1018.3 |
| 20260502150524 | 10 | 359 | 0.0 | 3.2 | 0.00 | 0.00 | 0.00 | 75 | 1018.3 |
| 20260502130506 | 6 | 359 | 0.0 | 3.2 | 0.00 | 0.00 | 0.00 | 84 | 1018.1 |
| 20260502123507 | 6 | 359 | 0.0 | 4.8 | 0.00 | 0.00 | 0.00 | 83 | 1018.1 |
| 20260502123003 | 6 | 359 | 0.0 | 4.8 | 0.00 | 0.00 | 0.00 | 82 | 1018.1 |
| 20260502122502 | 6 | 359 | 1.6 | 8.0 | 0.00 | 0.00 | 0.00 | 84 | 1018.1 |
| 20260502122002 | 6 | 359 | 3.2 | 6.4 | 0.00 | 0.00 | 0.00 | 82 | 1018.1 |
| 20260502121502 | 6 | 359 | 0.0 | 3.2 | 0.00 | 0.00 | 0.00 | 83 | 1018.1 |
| 20260502121002 | 6 | 359 | 0.0 | 1.6 | 0.00 | 0.00 | 0.00 | 83 | 1018.0 |
| 20260502120501 | 6 | 359 | 0.0 | 3.2 | 0.00 | 0.00 | 0.00 | 82 | 1018.1 |
| 20260502120136 | 6 | 359 | 1.6 | 3.2 | 0.00 | 0.00 | 0.00 | 82 | 1018.0 |
| 20260502115600 | 6 | 359 | 0.0 | 1.6 | 0.00 | 0.00 | 0.00 | 81 | 1018.1 |
| 20260502115059 | 6 | 359 | 0.0 | 1.6 | 0.00 | 0.00 | 0.00 | 81 | 1018.1 |
| 20260502114559 | 6 | 359 | 0.0 | 1.6 | 0.00 | 0.00 | 0.00 | 80 | 1018.0 |
| 20260502114058 | 6 | 359 | 0.0 | 3.2 | 0.00 | 0.00 | 0.00 | 81 | 1018.1 |
| 20260502113558 | 6 | 359 | 0.0 | 3.2 | 0.00 | 0.00 | 0.00 | 79 | 1018.1 |
| 20260502113058 | 6 | 359 | 0.0 | 3.2 | 0.00 | 0.00 | 0.00 | 79 | 1018.1 |
| 20260502112557 | 6 | 359 | 0.0 | 4.8 | 0.00 | 0.00 | 0.00 | 78 | 1018.1 |
| 20260502112057 | 6 | 359 | 0.0 | 4.8 | 0.00 | 0.00 | 0.00 | 78 | 1018.1 |
| 20260502111557 | 6 | 359 | 1.6 | 4.8 | 0.00 | 0.00 | 0.00 | 76 | 1018.1 |
| 20260502111056 | 6 | 359 | 0.0 | 1.6 | 0.00 | 0.00 | 0.00 | 76 | 1018.1 |
| 20260502110558 | 6 | 359 | 0.0 | 1.6 | 0.00 | 0.00 | 0.00 | 76 | 1018.1 |
| 20260502110056 | 6 | 359 | 0.0 | 4.8 | 0.00 | 0.00 | 0.00 | 76 | 1018.1 |
| 20260502105556 | 6 | 359 | 0.0 | 4.8 | 0.00 | 0.00 | 0.00 | 77 | 1018.1 |
| 20260502105055 | 6 | 359 | 1.6 | 6.4 | 0.00 | 0.00 | 0.00 | 78 | 1018.0 |
| 20260502104556 | 6 | 359 | 3.2 | 6.4 | 0.00 | 0.00 | 0.00 | 79 | 1018.1 |
| 20260502104054 | 6 | 359 | 1.6 | 4.8 | 0.00 | 0.00 | 0.00 | 79 | 1018.1 |
| 20260502103554 | 6 | 359 | 1.6 | 4.8 | 0.00 | 0.00 | 0.00 | 78 | 1018.0 |
| 20260502103054 | 6 | 359 | 1.6 | 4.8 | 0.00 | 0.00 | 0.00 | 78 | 1017.9 |
| 20260502102556 | 6 | 359 | 0.0 | 1.6 | 0.00 | 0.00 | 0.00 | 77 | 1017.9 |
| 20260502102052 | 6 | 359 | 0.0 | 3.2 | 0.00 | 0.00 | 0.00 | 77 | 1017.9 |
| 20260502101559 | 6 | 359 | 0.0 | 4.8 | 0.00 | 0.00 | 0.00 | 77 | 1017.9 |
| 20260502101052 | 6 | 359 | 1.6 | 4.8 | 0.00 | 0.00 | 0.00 | 78 | 1017.9 |
| 20260502100552 | 6 | 359 | 1.6 | 4.8 | 0.00 | 0.00 | 0.00 | 79 | 1017.9 |
| 20260502091045 | 7 | 359 | 1.6 | 4.8 | 0.00 | 0.00 | 0.00 | 73 | 1017.7 |
| 20260502090545 | 7 | 359 | 1.6 | 4.8 | 0.00 | 0.00 | 0.00 | 75 | 1017.7 |
| 20260502071534 | 7 | 359 | 1.6 | 3.2 | 0.00 | 0.00 | 0.00 | 75 | 1017.9 |
| 20260502071033 | 7 | 359 | 0.0 | 4.8 | 0.00 | 0.00 | 0.00 | 72 | 1017.8 |
| 20260502070536 | 8 | 359 | 1.6 | 4.8 | 0.00 | 0.00 | 0.00 | 69 | 1017.9 |
| 20260502070034 | 8 | 359 | 0.0 | 3.2 | 0.00 | 0.00 | 0.00 | 68 | 1017.8 |
| 20260502065532 | 8 | 359 | 1.6 | 4.8 | 0.00 | 0.00 | 0.00 | 71 | 1017.9 |
| 20260502065032 | 8 | 359 | 1.6 | 4.8 | 0.00 | 0.00 | 0.00 | 73 | 1017.9 |
| 20260502064534 | 8 | 359 | 1.6 | 4.8 | 0.00 | 0.00 | 0.00 | 74 | 1017.8 |
| 20260502064031 | 8 | 359 | 1.6 | 4.8 | 0.00 | 0.00 | 0.00 | 75 | 1017.8 |
| 20260502063532 | 8 | 359 | 0.0 | 4.8 | 0.00 | 0.00 | 0.00 | 74 | 1017.7 |
| 20260502063034 | 8 | 359 | 1.6 | 4.8 | 0.00 | 0.00 | 0.00 | 74 | 1017.7 |
| 20260502062527 | 8 | 359 | 1.6 | 4.8 | 0.00 | 0.00 | 0.00 | 69 | 1017.7 |
| 20260502062023 | 8 | 359 | 0.0 | 4.8 | 0.00 | 0.00 | 0.00 | 68 | 1017.6 |
| 20260502061524 | 8 | 359 | 0.0 | 3.2 | 0.00 | 0.00 | 0.00 | 67 | 1017.7 |
| 20260502061023 | 8 | 359 | 0.0 | 4.8 | 0.00 | 0.00 | 0.00 | 67 | 1017.6 |
| 20260502060522 | 8 | 359 | 1.6 | 4.8 | 0.00 | 0.00 | 0.00 | 66 | 1017.6 |
| 20260502060021 | 8 | 359 | 1.6 | 4.8 | 0.00 | 0.00 | 0.00 | 68 | 1017.6 |
| 20260502055521 | 8 | 359 | 1.6 | 4.8 | 0.00 | 0.00 | 0.00 | 69 | 1017.6 |
| 20260502055021 | 8 | 359 | 1.6 | 4.8 | 0.00 | 0.00 | 0.00 | 73 | 1017.7 |
| 20260502054523 | 8 | 359 | 1.6 | 4.8 | 0.00 | 0.00 | 0.00 | 75 | 1017.6 |
| 20260502054020 | 8 | 359 | 1.6 | 4.8 | 0.00 | 0.00 | 0.00 | 74 | 1017.6 |
| 20260502053520 | 8 | 359 | 1.6 | 4.8 | 0.00 | 0.00 | 0.00 | 73 | 1017.5 |
| 20260502053020 | 8 | 359 | 0.0 | 8.0 | 0.00 | 0.00 | 0.00 | 73 | 1017.5 |
| 20260502052520 | 8 | 359 | 3.2 | 8.0 | 0.00 | 0.00 | 0.00 | 72 | 1017.5 |
| 20260502052020 | 9 | 359 | 1.6 | 6.4 | 0.00 | 0.00 | 0.00 | 72 | 1017.5 |
| 20260502051523 | 9 | 359 | 3.2 | 6.4 | 0.00 | 0.00 | 0.00 | 72 | 1017.4 |
| 20260502051019 | 9 | 359 | 1.6 | 8.0 | 0.00 | 0.00 | 0.00 | 73 | 1017.5 |
| 20260502050519 | 10 | 359 | 3.2 | 8.0 | 0.00 | 0.00 | 0.00 | 72 | 1017.5 |
| 20260502050031 | 10 | 359 | 0.0 | 4.8 | 0.00 | 0.00 | 0.00 | 75 | 1017.5 |
| 20260502045519 | 10 | 359 | 1.6 | 6.4 | 0.00 | 0.00 | 0.00 | 69 | 1017.6 |
| 20260502045020 | 10 | 359 | 3.2 | 6.4 | 0.00 | 0.00 | 0.00 | 72 | 1017.5 |
| 20260502044518 | 10 | 359 | 0.0 | 3.2 | 0.00 | 0.00 | 0.00 | 69 | 1017.4 |
| 20260502044018 | 10 | 359 | 1.6 | 4.8 | 0.00 | 0.00 | 0.00 | 67 | 1017.5 |
| 20260502043518 | 10 | 359 | 0.0 | 3.2 | 0.00 | 0.00 | 0.00 | 66 | 1017.6 |
| 20260502043018 | 11 | 359 | 0.0 | 3.2 | 0.00 | 0.00 | 0.00 | 67 | 1017.6 |
| 20260502042517 | 11 | 359 | 0.0 | 4.8 | 0.00 | 0.00 | 0.00 | 66 | 1017.6 |
| 20260502042018 | 11 | 359 | 3.2 | 4.8 | 0.00 | 0.00 | 0.00 | 65 | 1017.5 |
| 20260502041525 | 11 | 359 | 0.0 | 6.4 | 0.00 | 0.00 | 0.00 | 64 | 1017.4 |
| 20260502041017 | 11 | 359 | 1.6 | 6.4 | 0.00 | 0.00 | 0.00 | 65 | 1017.3 |
| 20260502040517 | 11 | 359 | 3.2 | 6.4 | 0.00 | 0.00 | 0.00 | 66 | 1017.3 |
| 20260502040018 | 11 | 359 | 3.2 | 6.4 | 0.00 | 0.00 | 0.00 | 64 | 1017.4 |
| 20260502035517 | 11 | 359 | 1.6 | 6.4 | 0.00 | 0.00 | 0.00 | 64 | 1017.4 |
| 20260502035017 | 11 | 359 | 1.6 | 6.4 | 0.00 | 0.00 | 0.00 | 68 | 1017.3 |
| 20260502034520 | 12 | 359 | 3.2 | 6.4 | 0.00 | 0.00 | 0.00 | 66 | 1017.2 |
| 20260502034016 | 12 | 359 | 3.2 | 6.4 | 0.00 | 0.00 | 0.00 | 62 | 1017.2 |
| 20260502033517 | 12 | 359 | 1.6 | 8.0 | 0.00 | 0.00 | 0.00 | 61 | 1017.1 |
| 20260502033019 | 12 | 359 | 1.6 | 8.0 | 0.00 | 0.00 | 0.00 | 61 | 1017.1 |
| 20260502032514 | 12 | 359 | 3.2 | 6.4 | 0.00 | 0.00 | 0.00 | 61 | 1017.0 |
| 20260502032014 | 13 | 359 | 3.2 | 6.4 | 0.00 | 0.00 | 0.00 | 61 | 1016.9 |
| 20260502031514 | 13 | 359 | 3.2 | 6.4 | 0.00 | 0.00 | 0.00 | 61 | 1016.9 |